EW5499 Weather Reports


time (UTC)temp
F
wind
direction
speed
knots
gust
knots
rain 1hr
in
rain 24hr
in
rain mn
in
humidity
%
barometer
mb
20260509124545 50 269 5.2 13.0 0.00 0.00 0.00 79 997.9
20260509123043 51 246 5.2 10.4 0.00 0.00 0.00 79 997.9
20260509121545 50 270 6.1 9.6 0.00 0.00 0.00 81 997.6
20260509120048 51 209 4.3 8.7 0.00 0.00 0.00 79 997.9
20260509114538 51 261 6.1 9.6 0.00 0.00 0.00 80 997.7
20260509113036 51 250 1.7 6.1 0.00 0.00 0.00 81 997.9
20260509111533 51 236 0.9 4.3 0.00 0.00 0.00 81 997.5
20260509110029 50 246 1.7 4.3 0.00 0.00 0.00 82 997.8
20260509104530 49 111 1.7 5.2 0.00 0.00 0.00 80 997.9
20260509103026 49 103 1.7 3.5 0.00 0.00 0.00 78 998.0
20260509101526 49 95 0.9 4.3 0.00 0.00 0.00 78 998.3
20260509100022 49 72 0.9 3.5 0.00 0.00 0.00 76 998.3
20260509094526 49 92 0.9 2.6 0.00 0.00 0.00 74 998.4
20260509093019 49 110 0.9 3.5 0.00 0.00 0.00 73 998.7
20260509091518 50 135 0.9 2.6 0.00 0.00 0.00 72 999.0
20260509090012 50 97 0.9 2.6 0.00 0.00 0.00 71 999.1
20260509084512 50 95 0.9 3.5 0.00 0.00 0.00 71 999.4
20260509083009 51 182 0.9 5.2 0.00 0.00 0.00 71 999.5
20260509081600 51 84 0.9 3.5 0.00 0.00 0.00 69 999.7
20260509080107 52 184 0.9 2.6 0.00 0.00 0.00 67 999.8
20260509074556 52 105 0.9 3.5 0.00 0.00 0.00 65 1000.1
20260509073122 52 76 0.9 3.5 0.00 0.00 0.00 64 1000.5
20260509071550 53 40 0.9 7.8 0.00 0.00 0.00 64 1000.7
20260509070051 54 214 0.9 3.5 0.00 0.00 0.00 53 1001.3
20260509064543 53 210 0.9 4.3 0.00 0.00 0.00 52 1001.1
20260509063040 52 231 1.7 7.0 0.00 0.00 0.00 49 1001.2
20260509061540 53 274 1.7 5.2 0.00 0.00 0.00 48 1001.5
20260509060047 52 292 0.9 5.2 0.00 0.00 0.00 42 1001.8
20260509054537 51 186 0.9 5.2 0.00 0.00 0.00 42 1001.6
20260509053036 51 329 0.9 2.6 0.00 0.00 0.00 44 1002.0
20260509051534 51 360 0.9 2.6 0.00 0.00 0.00 44 1002.3
20260509050027 50 175 0.9 2.6 0.00 0.00 0.00 43 1002.3
20260509044533 51 61 0.9 2.6 0.00 0.00 0.00 44 1002.6
20260509043030 51 53 1.7 3.5 0.00 0.00 0.00 44 1002.5
20260509041519 52 250 0.9 2.6 0.00 0.00 0.00 43 1003.2
20260509040015 53 251 0.9 3.5 0.00 0.00 0.00 39 1003.5
20260509034515 53 251 0.9 2.6 0.00 0.00 0.00 39 1003.5
20260509033014 53 248 0.0 4.3 0.00 0.00 0.00 42 1003.5
20260509031516 53 225 0.9 2.6 0.00 0.00 0.00 41 1003.7
20260509030011 53 223 0.9 4.3 0.00 0.00 0.00 44 1003.8
20260509024511 53 248 0.9 2.6 0.00 0.00 0.00 41 1003.9
20260509023010 52 341 0.0 1.7 0.00 0.00 0.00 42 1003.9
20260509021510 52 195 0.9 3.5 0.00 0.00 0.00 43 1003.8
20260509020009 52 310 0.9 2.6 0.00 0.00 0.00 43 1003.9
20260509014508 53 310 0.9 1.7 0.00 0.00 0.00 44 1003.9
20260509013008 53 309 0.0 2.6 0.00 0.00 0.00 43 1003.9
20260509011507 54 223 0.9 1.7 0.00 0.00 0.00 41 1003.9
20260509010106 55 198 0.0 2.6 0.00 0.00 0.00 40 1004.0
20260509004506 57 273 0.0 2.6 0.00 0.00 0.00 39 1003.9
20260509003010 57 257 1.7 6.1 0.00 0.00 0.00 36 1004.0
20260509001502 58 248 1.7 7.0 0.00 0.00 0.00 38 1004.1
20260509000059 55 226 1.7 5.2 0.00 0.00 0.00 59 1004.2
20260508234556 54 273 2.6 6.1 0.00 0.00 0.00 63 1004.3
20260508233054 54 240 2.6 7.0 0.00 0.00 0.00 61 1004.4
20260508231554 54 273 3.5 7.8 0.00 0.00 0.00 59 1004.5
20260508230053 54 275 3.5 7.8 0.00 0.00 0.00 61 1004.5
20260508224552 55 282 2.6 8.7 0.00 0.00 0.00 59 1004.7
20260508223054 54 271 4.3 7.0 0.00 0.00 0.00 60 1004.8
20260508221548 55 273 4.3 7.8 0.00 0.00 0.00 61 1004.8
20260508220046 55 259 4.3 7.0 0.00 0.00 0.00 59 1005.0
20260508214553 53 254 3.5 7.8 0.00 0.00 0.00 62 1005.0
20260508213044 53 255 3.5 7.8 0.00 0.00 0.00 60 1005.1
20260508211543 54 280 5.2 7.8 0.00 0.00 0.00 59 1005.1
20260508210040 55 257 5.2 10.4 0.00 0.00 0.00 57 1005.3
20260508204542 55 261 5.2 7.8 0.00 0.00 0.00 58 1005.5
20260508203035 55 279 4.3 9.6 0.00 0.00 0.00 59 1005.7
20260508201537 55 278 5.2 8.7 0.00 0.00 0.00 58 1005.8
20260508200033 55 258 5.2 10.4 0.00 0.00 0.00 59 1006.0
20260508194528 54 265 5.2 9.6 0.00 0.00 0.00 60 1006.3
20260508193026 54 281 6.1 8.7 0.00 0.00 0.00 59 1006.5
20260508191527 54 274 6.1 9.6 0.00 0.00 0.00 60 1006.6
20260508190025 53 269 6.1 8.7 0.00 0.00 0.00 63 1006.8
20260508184519 53 280 6.1 8.7 0.00 0.00 0.00 64 1007.0
20260508183016 53 256 6.1 10.4 0.00 0.00 0.00 63 1007.1
20260508181506 53 224 6.1 12.2 0.00 0.00 0.00 61 1007.5
20260508180005 52 261 6.1 9.6 0.00 0.00 0.00 67 1007.8
20260508174603 51 238 6.1 9.6 0.00 0.00 0.00 69 1008.1
20260508173054 50 275 6.1 10.4 0.00 0.00 0.00 72 1008.3
20260508171551 50 247 6.1 7.8 0.00 0.00 0.00 75 1008.4
20260508170046 49 278 6.1 8.7 0.00 0.00 0.00 76 1008.6
20260508164545 49 260 6.1 10.4 0.00 0.00 0.00 76 1008.7
20260508163047 49 246 5.2 7.0 0.00 0.00 0.00 78 1008.9
20260508161641 48 265 6.1 8.7 0.00 0.00 0.00 78 1008.8
20260508160058 47 248 5.2 7.0 0.00 0.00 0.00 79 1008.9
20260508154535 47 267 5.2 8.7 0.00 0.00 0.00 81 1009.1
20260508153042 46 257 5.2 7.0 0.00 0.00 0.00 81 1009.1
20260508151533 46 263 5.2 7.0 0.00 0.00 0.00 82 1009.1
20260508150035 46 271 6.1 7.8 0.00 0.00 0.00 82 1009.1
20260508144528 45 274 5.2 10.4 0.00 0.00 0.00 81 1009.2
20260508143031 45 269 4.3 7.0 0.00 0.00 0.00 81 1009.3
20260508141536 45 253 4.3 8.7 0.00 0.00 0.00 81 1009.2
20260508140023 45 275 5.2 9.6 0.00 0.00 0.00 81 1009.2
20260508134529 45 277 4.3 6.1 0.00 0.00 0.00 81 1009.2
20260508133019 45 277 3.5 7.0 0.00 0.00 0.00 80 1009.3
20260508131519 45 262 3.5 7.0 0.00 0.00 0.00 76 1009.4
20260508130016 44 237 1.7 5.2 0.00 0.00 0.00 71 1009.4